Jackson, MI

9:46 AM EDT on October 17, 2019 (GMT -0400)
Jackson County-Reynolds

Weather History for KJXN - July, 2019

Change the Weather History Date:

Thursday, July 25, 2019

  Actual Average Record
Temperature  
Mean Temperature 68 °F 71 °F  
Max Temperature 82 °F 82 °F 96 °F (1966)
Min Temperature 55 °F 60 °F 49 °F (2013)
Degree Days  
Heating Degree Days 0 0  
Month to date heating degree days 1  
Since 1 June heating degree days 56  
Since 1 July heating degree days 1  
Cooling Degree Days 4 6  
Month to date cooling degree days 168  
Year to date cooling degree days 331  
Since 1 June cooling degree days 294  
Growing Degree Days 18 (Base 50)    
Moisture  
Dew Point 59 °F    
Average Humidity 72    
Maximum Humidity 100    
Minimum Humidity 45    
Precipitation  
Precipitation 0.00 in 0.13 in 1.60 in (2001)
Month to date precipitation 2.83  
Year to date precipitation 16.70  
Sea Level Pressure  
Sea Level Pressure 30.19 in    
Wind  
Wind Speed 3 mph (WSW)    
Max Wind Speed 8 mph    
Max Gust Speed -    
Visibility 10 miles    
Events      
T = Trace of Precipitation, MM = Missing Value Source: NWS Daily Summary

Daily Weather History Graph

Daily Weather History Graph

Search for Another Location

Airport or City:

Astronomy

Jul. 25, 2019 Rise Set
Actual Time 6:23 AM EDT 9:04 PM EDT
Civil Twilight 5:50 AM EDT 9:37 PM EDT
Nautical Twilight 5:10 AM EDT 10:17 PM EDT
Astronomical Twilight 4:23 AM EDT 11:04 PM EDT
Moon 1:11 AM EDT (7/25) 2:42 PM EDT (7/25)
Length of Visible Light 15h 46m
Length of Day
14h 41m
Last Quarter, 44% of the Moon is Illuminated
Jul 25
Last Quarter
Jul 31
New
Aug 7
First Quarter
Aug 15
Full
Aug 23
Last Quarter

Hourly Weather History & Observations

Time (EDT) Temp. Heat Index Dew Point Humidity Pressure Visibility Wind Dir Wind Speed Gust Speed Precip Events Conditions
12:56 AM 59.0 °F - 57.9 °F 96% 30.15 in 10.0 mi Calm Calm - N/A   Clear
1:56 AM 59.0 °F - 57.9 °F 96% 30.15 in 10.0 mi SW 3.5 mph - N/A   Partly Cloudy
2:56 AM 57.9 °F - 57.0 °F 97% 30.15 in 10.0 mi Calm Calm - N/A   Partly Cloudy
3:56 AM 57.0 °F - 57.0 °F 100% 30.15 in 10.0 mi SW 3.5 mph - N/A   Clear
4:56 AM 55.9 °F - 55.9 °F 100% 30.16 in 10.0 mi WSW 3.5 mph - N/A   Clear
5:56 AM 55.9 °F - 55.0 °F 97% 30.17 in 10.0 mi WSW 3.5 mph - N/A   Clear
6:56 AM 57.9 °F - 55.9 °F 93% 30.19 in 10.0 mi Calm Calm - N/A   Clear
7:56 AM 59.0 °F - 57.9 °F 96% 30.21 in 10.0 mi Calm Calm - N/A   Clear
8:56 AM 64.9 °F - 59.0 °F 81% 30.22 in 10.0 mi Calm Calm - N/A   Clear
9:56 AM 71.1 °F - 57.9 °F 63% 30.23 in 10.0 mi Variable 3.5 mph - N/A   Scattered Clouds
10:56 AM 73.9 °F - 57.0 °F 55% 30.23 in 10.0 mi WSW 8.1 mph - N/A   Partly Cloudy
11:56 AM 77.0 °F - 57.0 °F 50% 30.22 in 10.0 mi West 8.1 mph - N/A   Partly Cloudy
12:56 PM 79.0 °F - 55.9 °F 45% 30.21 in 10.0 mi West 8.1 mph - N/A   Clear
1:56 PM 81.0 °F 81.1 °F 57.9 °F 45% 30.21 in 10.0 mi West 6.9 mph - N/A   Clear
2:56 PM 82.0 °F 82.4 °F 60.1 °F 47% 30.20 in 10.0 mi Calm Calm - N/A   Clear
3:56 PM 81.0 °F 81.3 °F 59.0 °F 47% 30.19 in 10.0 mi West 4.6 mph - N/A   Partly Cloudy
4:56 PM 82.0 °F 82.4 °F 60.1 °F 47% 30.18 in 10.0 mi Variable 5.8 mph - N/A   Clear
5:56 PM 82.0 °F 82.1 °F 59.0 °F 45% 30.18 in 10.0 mi West 5.8 mph - N/A   Partly Cloudy
6:56 PM 80.1 °F 80.9 °F 60.1 °F 50% 30.17 in 10.0 mi West 3.5 mph - N/A   Clear
7:56 PM 79.0 °F - 60.1 °F 52% 30.18 in 10.0 mi SSW 5.8 mph - N/A   Clear
8:56 PM 75.0 °F - 62.1 °F 64% 30.18 in 10.0 mi SSW 4.6 mph - N/A   Scattered Clouds
9:56 PM 69.1 °F - 63.0 °F 81% 30.19 in 10.0 mi SSW 3.5 mph - N/A   Clear
10:56 PM 66.0 °F - 63.0 °F 90% 30.21 in 10.0 mi SW 3.5 mph - N/A   Clear
11:56 PM 64.9 °F - 63.0 °F 93% 30.21 in 10.0 mi SW 3.5 mph - N/A   Clear